Regional Weather Roundup
Issued by NWS

Home | Current Version | Previous Version | Graphics & Text | Print | Product List | Glossary On
Versions: 1 2 3 4 5 6 7 8 9 10 11 12 13 14 15 16 17 18 19 20 21 22 23 24 25 26 27 28 29 30 31 32 33 34 35 36 37 38 39 40 41 42 43 44 45 46 47 48 49 50
000
ASUS43 KMPX 112310
RWRMN
WEATHER ROUNDUP FOR MINNESOTA
NATIONAL WEATHER SERVICE TWIN CITIES/CHANHASSEN MN
500 PM CST MON DEC 11 2017


NOTE: "FAIR" INDICATES FEW OR NO CLOUDS BELOW 12,000 FEET WITH NO
SIGNIFICANT WEATHER AND/OR OBSTRUCTIONS TO VISIBILITY. N/A MEANS
CURRENT SKY AND/OR WEATHER CONDITIONS ARE NOT AVAILABLE.

MNZ060>063-068>070-120000-
   Twin Cities Metro

CITY           SKY/WX    TMP DP  RH WIND       PRES   REMARKS
TWIN CITIES    CLOUDY    29  21  72 N15G28    30.04R WCI  18
ST PAUL        CLOUDY    28  19  69 N20G29    30.04R WCI  15
CRYSTAL        CLOUDY    28  16  60 NW20G29   30.04R WCI  15
BLAINE         MOCLDY    28  19  69 N16G25    30.03R WCI  17
LAKEVILLE      CLOUDY    28  21  74 NW21G28   30.01R WCI  15
EDEN PRAIRIE   CLOUDY    29  18  63 NW20G35   30.03R WCI  16
SOUTH ST PAUL  CLOUDY    30  20  67 N17       30.02R WCI  18
LAKE ELMO      CLOUDY    28  19  69 N15G26    30.02R WCI  17
$$
MNZ001>005-007-008-013>017-022>024-027-028-120000-
   Northwest Minnesota

CITY           SKY/WX    TMP DP  RH WIND       PRES   REMARKS
BEMIDJI        LGT SNOW  13   8  81 NW18      30.16R WCI  -4
HALLOCK        MOCLDY    10   7  85 NW10      30.32R WCI  -3
ROSEAU         CLEAR     10   3  72 NW15      30.25R WCI  -6
WARROAD        CLEAR      9   3  78 NW12      30.23R WCI  -6
THIEF RVR FALL CLEAR      8   4  83 NW17      30.26R WCI -10
CROOKSTON      MOCLDY    10   7  85 N22       30.31R WCI  -9
FOSSTON        MOCLDY     9   3  78 NW12      30.23R WCI  -6
DETROIT LAKES  CLEAR     12   9  85 NW20G25   30.23R WCI  -6
MOORHEAD       CLEAR     12   7  79 N18G25    30.30R WCI  -5
PARK RAPIDS    FLURRIES  15   9  76 NW17      30.14R WCI  -1
MAHNOMEN       FAIR       9   5  85 NW13      30.23R WCI  -7
$$
MNZ006-009>011-018-025>026-120000-
   North Central Minnesota

CITY           SKY/WX    TMP DP  RH WIND       PRES   REMARKS
BAUDETTE       MOCLDY    11   5  77 NW14      30.17R WCI  -5
FLAG ISLAND    CLEAR      9   3  78 W15       30.19R WCI  -8
INTL FALLS     MOCLDY    12   5  73 NW13      30.11R WCI  -3
WASKISH        FLURRIES  14   9  79 NW15      30.17R WCI  -1
LONGVILLE      CLEAR     18   9  68 NW8       30.11R WCI   7
GRAND RAPIDS   FLURRIES  17  10  74 NW21      30.09R WCI   0
CRANE LAKE     FLURRIES  12   7  79 N9        30.09R WCI   0
ORR            CLOUDY    14   7  73 NW10G17   30.04R WCI   1
COOK           FLURRIES  14   9  79 NW9       30.05R WCI   2
WALKER         FAIR      17   9  71 NW13G23   30.12R WCI   4
$$
MNZ012-019>021-037-120000-
   Northeast Minnesota

CITY           SKY/WX    TMP DP  RH WIND       PRES   REMARKS
DULUTH         FLURRIES  16  11  80 NW15G23   29.98R WCI   1
ELY            LGT SNOW  12   7  79 NW12G21   30.00R WCI  -2
HIBBING        MOCLDY    15   7  70 NW20G30   30.03R WCI  -2
EVELETH        FLURRIES  15   6  66 NW16G24   30.03R WCI  -1
DULUTH HARBOR  MOCLDY    21  12  68 NW15      30.06R WCI   8
TWO HARBORS    CLEAR     19   9  63 NW6G18    29.98R WCI  11
SILVER BAY     CLEAR     16   9  73 NW5       29.96  WCI   9
GRAND MARAIS     N/A     16   5  62 VRB7G20   29.95R WCI   6
G MARAIS ARPRT LGT SNOW   9   0  66 NW12G28   29.86R WCI  -6
$$
MNZ029>031-032-039>041-046>048-054>057-064-120000-
   West Central Minnesota

CITY           SKY/WX    TMP DP  RH WIND       PRES   REMARKS
FERGUS FALLS   PTCLDY    12   9  85 N21G32    30.27R WCI  -6
WHEATON        CLEAR     18  12  79 NW18G26   30.29R WCI   2
MORRIS         CLEAR     18  10  73 N25G31    30.21R WCI  -1
ALEXANDRIA     CLOUDY    17  11  77 N16G30    30.16R WCI   2
ELBOW LAKE     FAIR      14  10  83 NW16G25   30.22R WCI  -2
WADENA         FLURRIES  16  10  79 NW13      30.15R WCI   2
GLENWOOD       PTCLDY    18  12  79 NW14      30.15R WCI   4
APPLETON         N/A     21  14  73 N17G26    30.22R WCI   7
BENSON         PTCLDY    18  12  79 N24G30    30.20R WCI   0
ORTONVILLE     CLEAR     21  12  68 N18G26    30.23R WCI   6
MADISON        CLEAR     25  16  68 N24G36    30.23R WCI   9
WILLMAR        MOCLDY    25  18  74 NW14      30.15R WCI  13
$$
MNZ033>034-036-042>043-049>051-058-059-120000-
   Central Minnesota

CITY           SKY/WX    TMP DP  RH WIND       PRES   REMARKS
ST CLOUD       CLEAR     23  13  65 N10G21    30.08R WCI  12
SAUK CENTRE    CLOUDY    21  15  77 NW16      30.13R WCI   7
PAYNESVILLE    PTCLDY    23  18  81 NW12G20   30.12R WCI  12
AITKIN         CLEAR     18   9  68 NW10G17   30.06R WCI   6
PINE RIVER     CLEAR     18   9  68 N16G22    30.14R WCI   3
BRAINERD       CLEAR     20  10  65 N13       30.09R WCI   7
STAPLES        PTCLDY    18  10  73 NW13      30.13R WCI   4
LONG PRAIRIE   MOCLDY    21  14  73 W14G21    30.11R WCI   8
LITTLE FALLS   CLEAR     23   9  54 NW6       30.11R WCI  16
LITCHFIELD     MOCLDY    27  21  80 NW15G26   30.10R WCI  15
BUFFALO        PTCLDY    27  18  69 NW12G20   30.08R WCI  16
MAPLE LAKE     MOCLDY    28  20  74 N14       30.08R WCI  17
HUTCHINSON     MOCLDY    28  20  72 NW21G29   30.09R WCI  15
$$
MNZ037-044-045-052-053-120000-
   East Central Minnesota

CITY           SKY/WX    TMP DP  RH WIND       PRES   REMARKS
PRINCETON      CLOUDY    27  16  63 NW14G22   30.06R WCI  15
MORA           MOCLDY    25  16  68 NW18G24   30.07R WCI  11
CAMBRIDGE      CLOUDY    27  16  63 NW12G21   30.06R WCI  16
RUSH CITY      MOCLDY    24  13  64 NW16      30.05R WCI  11
MOOSE LAKE     PTCLDY    21  10  63 N10G17    30.02R WCI  10
HINCKLEY       CLOUDY    25  14  63 NW13G20   30.04R WCI  13
CLOQUET        FLURRIES  19  10  68 NW9       30.01R WCI   9
MCGREGOR       PTCLDY    21  12  68 NW18G26   30.06R WCI   6
$$
MNZ071>073-080-081-089-090-097-098-120000-
   Southwest Minnesota

CITY           SKY/WX    TMP DP  RH WIND       PRES   REMARKS
MONTEVIDEO     PTCLDY    19  14  79 N22G35    30.21R WCI   3
GRANITE FALLS  PTCLDY    23  17  77 NW16G25   30.19R WCI  10
CANBY          PTCLDY    24  17  73 NW17G35   30.23R WCI  10
MARSHALL       PTCLDY    21  16  79 N20G35    30.18R WCI   6
REDWOOD FALLS  CLOUDY    25  15  66 NW20G31   30.13R WCI  11
OLIVIA         MOCLDY    27  19  74 NW20G29   30.13R WCI  13
PIPESTONE      PTCLDY    25  18  74 N20G35    30.15R WCI  11
WINDOM           N/A     25  10  54 NW23G37   30.11R WCI  10
WORTHINGTON    CLOUDY    24  19  81 NW28G35   30.12R WCI   7
JACKSON        CLOUDY    25  19  80 MISG      30.10R
TRACY          MOCLDY    24  19  80 NW26G38   30.15R WCI   7
SLAYTON        CLOUDY    24  19  80 NW22G31   30.14R WCI   9
$$
MNZ065>067-074>077-082>085-091>093-120000-
   South Central Minnesota

CITY           SKY/WX    TMP DP  RH WIND       PRES   REMARKS
MANKATO        CLOUDY    31  24  75 NW23G30   30.05R WCI  18
NEW ULM        CLOUDY    27  18  69 NW26G36   30.09R WCI  11
ST JAMES       CLOUDY    27  21  80 NW23G32   30.10R WCI  12
FAIRMONT       CLOUDY    28  23  81 NW26G35   30.06R WCI  13
GLENCOE        CLOUDY    30  22  71 NW18G29   30.06R WCI  18
FARIBAULT      CLOUDY    30  21  69 NW21G26   30.02R WCI  17
OWATONNA       CLOUDY    30  25  80 NW26      29.99R WCI  16
WASECA         CLOUDY    32  27  80 N16G28    30.03R WCI  21
ALBERT LEA     CLOUDY    32  25  74 N18G29    29.99R WCI  20
$$
MNZ078>079-086>088-094>096-120000-
   Southeast Minnesota

CITY           SKY/WX    TMP DP  RH WIND       PRES   REMARKS
ROCHESTER      CLOUDY    31  27  85 N18       29.94R WCI  19
RED WING       CLOUDY    32  19  59 N10G21    29.97R WCI  24
STANTON        CLOUDY    32  23  69 N21G29    29.99R WCI  20
DODGE CENTER   CLOUDY    30  27  86 N20G28    29.96R WCI  18
WINONA         CLOUDY    34  28  80 NW12      29.93R WCI  25
AUSTIN         CLOUDY    32  27  80 NW13G21   29.96R WCI  22
PRESTON        CLOUDY    30  26  86 N14G22    29.91R WCI  20
$$
ABBREVIATIONS USED IN REMARKS
   TC - TEMPERATURES IN CELSIUS
  WCI - WIND CHILL INDEX
   HX - HEAT INDEX
  VSB - VISIBILITY
$$




USA.gov is the U.S. government's official web portal to all federal, state and local government web resources and services.